This is the latest recevied weather packets stored in our database for station/object KQ7A. If no packets are shown the sender has not sent any weather packets the latest 10 day(s).
| Time | Temp. | Humidity | Pressure | Rain* | Wind** | Luminosity | Snow |
|---|---|---|---|---|---|---|---|
| 1778027271 | 19.44° C | 40% | 1014 hPa | 0 mm | - | 331 W/m² | - |
| 1778026968 | 19.44° C | 40% | 1014 hPa | 0 mm | - | 347 W/m² | - |
| 1778026663 | 18.89° C | 43% | 1013.9 hPa | 0 mm | - | 367 W/m² | - |
| 1778026361 | 18.89° C | 40% | 1014.3 hPa | 0 mm | - | 384 W/m² | - |
| 1778026058 | 18.89° C | 46% | 1014 hPa | 0 mm | - | 401 W/m² | - |
| 1778025755 | 18.89° C | 44% | 1013.9 hPa | 0 mm | - | 414 W/m² | - |
| 1778025452 | 18.33° C | 48% | 1014.1 hPa | 0 mm | - | 424 W/m² | - |
| 1778025150 | 18.33° C | 43% | 1014 hPa | 0 mm | - | 442 W/m² | - |
| 1778024847 | 18.33° C | 45% | 1014.1 hPa | 0 mm | - | 452 W/m² | - |
| 1778024544 | 18.33° C | 44% | 1014.1 hPa | 0 mm | - | 466 W/m² | - |
| 1778024240 | 18.33° C | 44% | 1014 hPa | 0 mm | - | 476 W/m² | - |
| 1778023939 | 18.33° C | 46% | 1014.3 hPa | 0 mm | - | 502 W/m² | - |
| 1778023635 | 18.89° C | 48% | 1014.3 hPa | 0 mm | - | 523 W/m² | - |
| 1778023333 | 18.89° C | 47% | 1014.3 hPa | 0 mm | - | 535 W/m² | - |
| 1778023030 | 18.33° C | 46% | 1014.1 hPa | 0 mm | - | 551 W/m² | - |
| 1778022729 | 17.78° C | 45% | 1014.3 hPa | 0 mm | - | 557 W/m² | - |
| 1778022426 | 18.33° C | 48% | 1014.5 hPa | 0 mm | - | 563 W/m² | - |
| 1778022123 | 18.33° C | 47% | 1014.4 hPa | 0 mm | - | 620 W/m² | - |
| 1778021819 | 18.33° C | 53% | 1014.7 hPa | 0 mm | - | 622 W/m² | - |
| 1778021516 | 17.78° C | 50% | 1014.6 hPa | 0 mm | - | 648 W/m² | - |
| 1778021211 | 17.78° C | 47% | 1014.6 hPa | 0 mm | - | 626 W/m² | - |
| 1778020910 | 17.78° C | 57% | 1014.4 hPa | 0 mm | - | 642 W/m² | - |
| 1778020607 | 17.78° C | 49% | 1014.5 hPa | 0 mm | - | 642 W/m² | - |
| 1778020302 | 17.78° C | 49% | 1014.6 hPa | 0 mm | - | 647 W/m² | - |
| 1778019993 | 17.22° C | 54% | 1014.7 hPa | 0 mm | - | 658 W/m² | - |
* Rain latest hour (hover to see other rain measurements)
** Current wind speed in m/s (hover to see current wind gust speed)